GW4576 Weather Reports


time (UTC)temp
C
wind
direction
speed
KPH
gust
KPH
rain 1hr
cm
rain 24hr
cm
rain mn
cm
humidity
%
barometer
mb
20260507202458 20 138 4.8 4.8 0.00 0.00 0.00 58 1018.8
20260507201955 20 161 3.2 6.4 0.00 0.00 0.00 57 1018.4
20260507201450 21 127 6.4 6.4 0.00 0.00 0.00 58 1018.7
20260507200947 21 150 4.8 8.0 0.00 0.00 0.00 57 1018.8
20260507200442 21 358 3.2 6.4 0.00 0.00 0.00 57 1018.6
20260507195938 20 161 8.0 8.0 0.00 0.00 0.00 56 1018.7
20260507195436 20 153 4.8 6.4 0.00 0.00 0.00 57 1018.6
20260507194934 21 45 8.0 11.3 0.00 0.00 0.00 55 1018.5
20260507194430 21 37 9.7 9.7 0.00 0.00 0.00 57 1018.5
20260507193926 21 25 3.2 4.8 0.00 0.00 0.00 56 1018.7
20260507193423 21 80 3.2 8.0 0.00 0.00 0.00 56 1018.6
20260507192920 21 160 1.6 6.4 0.00 0.00 0.00 56 1018.7
20260507192416 20 58 6.4 16.1 0.00 0.00 0.00 57 1018.5
20260507191913 20 107 6.4 12.9 0.00 0.00 0.00 57 1018.9
20260507191409 21 72 4.8 6.4 0.00 0.00 0.00 55 1019.1
20260507190906 21 38 9.7 9.7 0.00 0.00 0.00 56 1018.9
20260507190404 20 52 4.8 12.9 0.00 0.00 0.00 55 1019.4
20260507185903 20 58 6.4 9.7 0.00 0.00 0.00 56 1019.4
20260507185359 20 44 9.7 9.7 0.00 0.00 0.00 55 1019.7
20260507184856 20 64 4.8 8.0 0.00 0.00 0.00 57 1019.8
20260507184354 20 72 11.3 17.7 0.00 0.00 0.00 54 1019.9
20260507183850 21 88 3.2 6.4 0.00 0.00 0.00 55 1019.9
20260507183348 21 69 4.8 16.1 0.00 0.00 0.00 54 1020.1
20260507182845 21 7 4.8 4.8 0.00 0.00 0.00 55 1020.0
20260507182341 21 23 11.3 11.3 0.00 0.00 0.00 55 1020.1
20260507181837 21 141 1.6 4.8 0.00 0.00 0.00 57 1019.9
20260507181333 20 95 4.8 6.4 0.00 0.00 0.00 59 1020.1
20260507180830 20 269 3.2 11.3 0.00 0.00 0.00 58 1020.0
20260507180327 20 19 4.8 9.7 0.00 0.00 0.00 58 1019.9
20260507175822 20 54 4.8 12.9 0.00 0.00 0.00 60 1019.8
20260507175320 20 20 8.0 14.5 0.00 0.00 0.00 59 1019.9
20260507174817 20 336 6.4 8.0 0.00 0.00 0.00 60 1020.0
20260507174315 19 21 4.8 19.3 0.00 0.00 0.00 62 1020.0
20260507173812 18 16 6.4 17.7 0.00 0.00 0.00 61 1020.0
20260507173309 19 11 6.4 20.9 0.00 0.00 0.00 61 1020.0
20260507172805 19 342 8.0 11.3 0.00 0.00 0.00 61 1020.1
20260507172306 18 39 11.3 20.9 0.00 0.00 0.00 60 1020.1
20260507171758 18 46 14.5 22.5 0.00 0.00 0.00 62 1020.2
20260507171255 18 29 9.7 19.3 0.00 0.00 0.00 61 1020.1
20260507170752 18 21 9.7 19.3 0.00 0.00 0.00 60 1020.1
20260507170248 18 28 9.7 14.5 0.00 0.00 0.00 62 1020.6
20260507165744 18 22 9.7 19.3 0.00 0.00 0.00 62 1020.5
20260507165241 18 13 6.4 16.1 0.00 0.00 0.00 64 1020.6
20260507164737 18 20 9.7 19.3 0.00 0.00 0.00 66 1020.8
20260507164234 18 25 9.7 17.7 0.00 0.00 0.00 64 1020.9
20260507163731 18 47 8.0 8.0 0.00 0.00 0.00 67 1020.9
20260507163229 18 44 8.0 14.5 0.00 0.00 0.00 66 1021.0
20260507162725 18 16 11.3 19.3 0.00 0.00 0.00 67 1020.9
20260507162221 18 26 8.0 12.9 0.00 0.00 0.00 68 1021.1
20260507161718 18 347 4.8 8.0 0.00 0.00 0.00 68 1021.6
20260507161214 18 352 4.8 9.7 0.00 0.00 0.00 68 1021.2
20260507160710 18 352 3.2 14.5 0.00 0.00 0.00 68 1021.1
20260507160207 17 70 14.5 16.1 0.00 0.00 0.00 67 1021.3
20260507155703 18 34 16.1 17.7 0.00 0.00 0.00 65 1021.2
20260507155159 18 48 4.8 6.4 0.00 0.00 0.00 69 1021.4
20260507154655 18 18 11.3 12.9 0.00 0.00 0.00 69 1021.3
20260507154153 18 12 4.8 12.9 0.00 0.00 0.00 70 1021.2
20260507153650 17 98 6.4 14.5 0.00 0.00 0.00 70
20260507153146 17 55 11.3 20.9 0.00 0.00 0.00 70 1021.3
20260507152643 17 329 6.4 11.3 0.00 0.00 0.00 70 1021.3
20260507152138 17 0 9.7 9.7 0.00 0.00 0.00 73 1021.2
20260507151635 17 46 6.4 19.3 0.00 0.00 0.00 70 1021.2
20260507151132 17 43 6.4 11.3 0.00 0.00 0.00 74 1021.4
20260507150629 17 28 6.4 11.3 0.00 0.00 0.00 74 1021.3
20260507150125 16 58 12.9 17.7 0.00 0.00 0.00 76 1021.4
20260507145620 16 68 8.0 8.0 0.00 0.00 0.00 77 1021.6
20260507145118 16 43 3.2 8.0 0.00 0.00 0.00 79 1021.5
20260507144614 15 25 9.7 14.5 0.00 0.00 0.00 78 1021.4
20260507144113 15 54 8.0 16.1 0.00 0.00 0.00 78 1021.6
20260507143609 15 43 12.9 14.5 0.00 0.00 0.00 79 1021.8
20260507143106 15 46 9.7 9.7 0.00 0.00 0.00 79 1021.5
20260507142601 15 43 8.0 16.1 0.00 0.00 0.00 80 1021.6
20260507142059 15 31 9.7 16.1 0.00 0.00 0.00 80 1021.5
20260507141554 15 29 4.8 8.0 0.00 0.00 0.00 81 1021.7
20260507141051 15 11 6.4 11.3 0.00 0.00 0.00 81 1021.8
20260507140548 15 46 8.0 12.9 0.00 0.00 0.00 81 1021.8
20260507140046 15 14 3.2 8.0 0.00 0.00 0.00 82 1021.8
20260507135542 15 36 6.4 9.7 0.00 0.00 0.00 83 1021.7
20260507135040 15 41 11.3 11.3 0.00 0.00 0.00 83 1021.7
20260507134536 15 7 6.4 8.0 0.00 0.00 0.00 84 1021.9
20260507134032 15 48 3.2 6.4 0.00 0.00 0.00 87 1022.0
20260507133528 13 36 6.4 8.0 0.00 0.00 0.00 88 1022.0
20260507133027 13 31 4.8 4.8 0.00 0.00 0.00 89 1021.9
20260507132523 13 353 4.8 6.4 0.00 0.00 0.00 89 1021.8
20260507132019 13 74 1.6 4.8 0.00 0.00 0.00 90 1022.0
20260507131516 12 35 3.2 4.8 0.00 0.00 0.00 90 1021.9
20260507131013 12 66 4.8 6.4 0.00 0.00 0.00 91 1022.1
20260507130510 12 8 3.2 4.8 0.00 0.00 0.00 91 1022.2
20260507130009 12 25 1.6 4.8 0.00 0.00 0.00 91 1021.9
20260507125507 12 22 0.0 3.2 0.00 0.00 0.00 91 1022.0
20260507125003 12 31 1.6 4.8 0.00 0.00 0.00 91 1022.0
20260507124500 11 38 0.0 4.8 0.00 0.00 0.00 92 1021.6
20260507123958 11 357 4.8 8.0 0.00 0.00 0.00 92 1022.0
20260507123455 11 23 3.2 6.4 0.00 0.00 0.00 92 1022.2
20260507122951 11 1 4.8 8.0 0.00 0.00 0.00 92 1022.1
20260507122447 11 0 4.8 8.0 0.00 0.00 0.00 92 1022.2
20260507121944 11 4 4.8 6.4 0.00 0.00 0.00 92 1022.1
20260507121439 11 353 4.8 6.4 0.00 0.00 0.00 92 1022.0
20260507120935 11 0 6.4 8.0 0.00 0.00 0.00 92 1022.0
20260507120432 11 7 4.8 6.4 0.00 0.00 0.00 92 1022.0
20260507115928 11 2 6.4 8.0 0.00 0.00 0.00 92 1021.9
20260507115424 11 12 3.2 9.7 0.00 0.00 0.00 92 1021.8
20260507114920 11 22 3.2 6.4 0.00 0.00 0.00 91 1022.0
20260507114417 11 0 3.2 6.4 0.00 0.00 0.00 91 1022.1
20260507113914 11 3 4.8 4.8 0.00 0.00 0.00 91 1022.0
20260507113411 11 13 4.8 6.4 0.00 0.00 0.00 91 1022.1
20260507112909 11 8 3.2 6.4 0.00 0.00 0.00 91 1021.9
20260507112406 11 2 6.4 9.7 0.00 0.00 0.00 91 1022.0
20260507111904 11 344 1.6 6.4 0.00 0.00 0.00 91 1021.9
20260507111400 11 0 4.8 6.4 0.00 0.00 0.00 90 1021.7
20260507110856 11 342 3.2 6.4 0.00 0.00 0.00 90 1021.8
20260507110352 11 1 3.2 8.0 0.00 0.00 0.00 90 1021.6
20260507105850 11 356 4.8 6.4 0.00 0.00 0.00 90 1021.5
20260507105346 11 347 3.2 6.4 0.00 0.00 0.00 90 1021.5
20260507104843 11 357 4.8 8.0 0.00 0.00 0.00 90 1021.5
20260507104340 11 0 4.8 6.4 0.00 0.00 0.00 90 1021.5
20260507103835 11 339 3.2 4.8 0.00 0.00 0.00 90 1021.4
20260507103332 11 11 1.6 3.2 0.00 0.00 0.00 89 1021.1
20260507102829 11 299 1.6 4.8 0.00 0.00 0.00 89 1021.2
20260507102325 11 355 0.0 3.2 0.00 0.00 0.00 89 1020.9
20260507101822 11 351 3.2 4.8 0.00 0.00 0.00 89 1020.9
20260507101316 12 333 3.2 8.0 0.00 0.00 0.00 89 1020.5
20260507100813 12 9 4.8 8.0 0.00 0.00 0.00 89 1020.6
20260507100312 12 327 1.6 8.0 0.00 0.00 0.00 89 1020.4
20260507095810 12 6 4.8 8.0 0.00 0.00 0.00 89 1020.5
20260507095306 12 355 6.4 8.0 0.00 0.00 0.00 89 1020.4
20260507094803 12 344 6.4 8.0 0.00 0.00 0.00 89 1020.3
20260507094259 12 317 4.8 6.4 0.00 0.00 0.00 89 1020.2
20260507093756 12 316 4.8 8.0 0.00 0.00 0.00 89 1020.1
20260507093255 12 296 4.8 6.4 0.00 0.00 0.00 89 1019.8
20260507092752 12 337 8.0 9.7 0.00 0.00 0.00 89 1019.7
20260507092248 12 348 4.8 8.0 0.00 0.00 0.00 89 1019.7
20260507091745 12 310 6.4 9.7 0.00 0.00 0.00 89 1019.6
20260507091242 12 349 4.8 9.7 0.00 0.00 0.00 89 1019.6
20260507090737 12 318 4.8 9.7 0.00 0.00 0.00 88 1019.5
20260507090234 12 342 4.8 6.4 0.00 0.00 0.00 88 1019.7
20260507085731 12 2 4.8 8.0 0.00 0.00 0.00 88 1019.6
20260507085227 12 340 3.2 8.0 0.00 0.00 0.00 88 1019.4
20260507084725 13 300 3.2 4.8 0.00 0.00 0.00 87 1019.4
20260507084221 13 326 4.8 6.4 0.00 0.00 0.00 87 1019.6
20260507083719 13 357 3.2 4.8 0.00 0.00 0.00 87 1019.5
20260507083215 13 347 3.2 4.8 0.00 0.00 0.00 87 1019.5
20260507082711 13 315 4.8 4.8 0.00 0.00 0.00 87 1019.6
20260507082207 13 350 3.2 4.8 0.00 0.00 0.00 87 1019.4
20260507081704 13 336 3.2 4.8 0.00 0.00 0.00 87 1019.3
20260507081200 13 358 6.4 8.0 0.00 0.00 0.00 87 1019.2
20260507080657 13 334 3.2 6.4 0.00 0.00 0.00 87 1019.1
20260507080153 13 358 3.2 8.0 0.00 0.00 0.00 87 1019.3
20260507075648 13 318 4.8 11.3 0.00 0.00 0.00 87 1018.9
20260507075145 13 332 4.8 9.7 0.00 0.00 0.00 88 1019.2
20260507074641 13 358 4.8 6.4 0.00 0.00 0.00 89 1018.9
20260507074140 13 343 6.4 8.0 0.00 0.00 0.00 89 1019.3
20260507073636 13 292 8.0 8.0 0.00 0.00 0.00 90 1019.1
20260507073132 13 330 6.4 11.3 0.00 0.00 0.00 91 1019.3
20260507072630 13 4 6.4 8.0 0.00 0.00 0.00 92 1019.2
20260507072127 13 306 0.0 4.8 0.00 0.00 0.00 93 1018.9
20260507071625 13 6 3.2 4.8 0.00 0.00 0.00 93 1018.9
20260507071121 13 5 3.2 4.8 0.00 0.00 0.00 94 1018.6
20260507070618 13 21 1.6 4.8 0.00 0.00 0.00 95 1018.6
20260507070115 13 14 1.6 4.8 0.00 0.00 0.00 95 1018.8
20260507065611 13 335 3.2 6.4 0.00 0.00 0.00 95 1018.6
20260507065108 13 322 4.8 4.8 0.00 0.00 0.00 96 1018.8
20260507064606 13 332 3.2 3.2 0.00 0.00 0.00 96 1018.7
20260507064105 13 1 1.6 3.2 0.00 0.00 0.00 96 1018.5
20260507063602 12 26 1.6 4.8 0.00 0.00 0.00 96 1018.5
20260507063059 12 25 0.0 3.2 0.00 0.00 0.00 96 1018.2
20260507062555 12 44 1.6 4.8 0.00 0.00 0.00 96 1018.1
20260507062053 12 32 3.2 4.8 0.00 0.00 0.00 96 1018.2
20260507061550 12 53 4.8 4.8 0.00 0.00 0.00 95 1018.2
20260507061048 12 30 3.2 4.8 0.00 0.00 0.00 95 1018.2
20260507060546 12 39 4.8 4.8 0.00 0.00 0.00 95 1018.3
20260507060042 12 37 4.8 6.4 0.00 0.00 0.00 95 1018.4
20260507055542 12 44 4.8 4.8 0.00 0.00 0.00 95 1018.4
20260507055039 12 27 4.8 6.4 0.00 0.00 0.00 95 1018.3
20260507054535 12 38 4.8 4.8 0.00 0.00 0.00 95 1018.2
20260507054032 11 52 1.6 3.2 0.00 0.00 0.00 95 1018.4
20260507053530 11 340 1.6 1.6 0.00 0.00 0.00 95 1018.6
20260507053029 11 10 1.6 3.2 0.00 0.00 0.00 94 1018.3
20260507052526 11 48 0.0 3.2 0.00 0.00 0.00 94 1018.3
20260507052022 11 45 0.0 1.6 0.00 0.00 0.00 95 1018.4
20260507051520 11 18 1.6 3.2 0.00 0.00 0.00 94 1018.4
20260507051017 11 28 0.0 1.6 0.00 0.00 0.00 94 1018.5
20260507050513 11 203 0.0 3.2 0.00 0.00 0.00 94 1018.1
20260507050010 11 34 0.0 1.6 0.00 0.08 0.08 94 1018.2
20260507045507 11 13 0.0 1.6 0.00 0.08 0.08 94 1018.3
20260507045004 12 323 0.0 1.6 0.00 0.08 0.08 94 1018.3
20260507044501 12 286 1.6 1.6 0.00 0.08 0.08 94 1018.2
20260507043957 12 28 1.6 3.2 0.00 0.08 0.08 94 1018.3
20260507043453 12 122 0.0 3.2 0.00 0.08 0.08 93 1018.4
20260507042950 12 53 0.0 1.6 0.00 0.08 0.08 93 1018.5
20260507042446 12 63 1.6 3.2 0.00 0.08 0.08 93 1018.2
20260507041942 12 19 0.0 1.6 0.00 0.08 0.08 93 1018.6
20260507041439 12 164 0.0 1.6 0.00 0.08 0.08 93 1018.5
20260507040936 12 60 0.0 0.0 0.00 0.08 0.08 93 1018.4
20260507040432 12 352 0.0 1.6 0.00 0.08 0.08 93 1018.6
20260507035928 12 309 0.0 1.6 0.00 0.08 0.08 92 1018.5
20260507035425 12 65 0.0 1.6 0.00 0.08 0.08 92 1018.3
20260507034922 12 228 0.0 3.2 0.00 0.08 0.08 92 1018.6
20260507034418 12 9 0.0 3.2 0.00 0.08 0.08 92 1018.3
20260507033916 13 348 0.0 3.2 0.00 0.08 0.08 91 1018.5
20260507033414 13 137 0.0 3.2 0.00 0.08 0.08 91 1018.6
20260507032911 13 63 1.6 3.2 0.00 0.08 0.08 91 1018.3
20260507032408 13 26 1.6 3.2 0.00 0.08 0.08 91 1018.4
20260507031904 13 10 1.6 3.2 0.00 0.08 0.08 91 1018.4
20260507031401 13 359 0.0 3.2 0.00 0.08 0.08 91 1018.3
20260507030857 13 357 1.6 3.2 0.00 0.08 0.08 91 1018.5
20260507030355 13 345 0.0 3.2 0.00 0.08 0.08 90 1018.4
20260507025851 14 19 0.0 3.2 0.00 0.08 0.08 90 1018.3
20260507025349 14 4 3.2 4.8 0.00 0.08 0.08 90 1018.2
20260507024846 14 0 3.2 4.8 0.00 0.08 0.08 90 1018.1
20260507024343 14 358 0.0 3.2 0.00 0.08 0.08 90 1017.9
20260507023839 14 0 3.2 4.8 0.00 0.08 0.08 90 1018.1
20260507023336 14 4 1.6 4.8 0.00 0.08 0.08 90 1017.8
20260507022834 14 342 1.6 3.2 0.00 0.08 0.08 90 1017.7
20260507022330 14 15 3.2 4.8 0.00 0.08 0.08 90 1017.6
20260507021826 14 357 3.2 3.2 0.00 0.08 0.08 89 1017.8
20260507021322 14 12 3.2 4.8 0.00 0.08 0.08 89 1017.6
20260507020820 14 0 1.6 4.8 0.00 0.08 0.08 89 1017.2
20260507020316 14 32 3.2 4.8 0.00 0.08 0.08 89 1017.2
20260507015813 14 7 3.2 4.8 0.00 0.08 0.08 88 1017.1
20260507015311 14 357 0.0 1.6 0.00 0.08 0.08 87 1017.0
20260507014808 14 335 0.0 3.2 0.00 0.08 0.08 86 1016.9
20260507014304 15 20 0.0 3.2 0.00 0.08 0.08 86 1016.7
20260507013800 15 119 0.0 1.6 0.00 0.08 0.08 85 1016.7
20260507013258 15 115 0.0 3.2 0.00 0.08 0.08 85 1016.5
20260507012755 15 111 0.0 1.6 0.00 0.08 0.08 84 1016.5
20260507012250 15 36 3.2 4.8 0.00 0.08 0.08 84 1016.4
20260507011749 15 20 0.0 3.2 0.00 0.08 0.08 83 1016.2
20260507011245 16 41 1.6 3.2 0.00 0.08 0.08 83 1016.1
20260507010744 16 45 3.2 6.4 0.00 0.08 0.08 82 1016.0
20260507010241 16 27 3.2 6.4 0.00 0.08 0.08 82 1016.0
20260507005738 16 53 6.4 6.4 0.00 0.08 0.08 81 1016.0
20260507005234 16 43 4.8 8.0 0.00 0.08 0.08 81 1015.6
20260507004731 16 41 1.6 6.4 0.00 0.08 0.08 80 1015.7
20260507004229 16 20 4.8 6.4 0.00 0.08 0.08 80 1015.9
20260507003725 16 30 4.8 8.0 0.00 0.08 0.08 79 1015.8
20260507003220 16 49 6.4 6.4 0.00 0.08 0.08 79 1015.9
20260507002717 16 41 8.0 11.3 0.00 0.08 0.08 78 1015.7
20260507002213 16 46 8.0 11.3 0.00 0.08 0.08 79 1015.8
20260507001709 16 75 6.4 8.0 0.00 0.08 0.08 79 1015.9
20260507001207 16 67 6.4 8.0 0.00 0.08 0.08 78 1016.0
20260507000703 16 37 6.4 8.0 0.00 0.08 0.08 78 1015.9
20260507000159 17 78 8.0 9.7 0.00 0.08 0.08 78 1015.9
20260506235656 17 21 4.8 4.8 0.00 0.08 0.08 78 1015.8
20260506235151 17 45 6.4 8.0 0.00 0.08 0.08 78 1015.8
20260506234648 17 43 6.4 8.0 0.00 0.08 0.08 78 1015.8
20260506234145 16 11 3.2 4.8 0.00 0.08 0.08 78 1015.7
20260506233643 16 72 8.0 11.3 0.00 0.08 0.08 78 1015.5
20260506233139 16 70 8.0 11.3 0.00 0.08 0.08 77 1015.8
20260506232636 16 58 11.3 11.3 0.00 0.08 0.08 77 1015.6
20260506232131 16 40 4.8 11.3 0.00 0.08 0.08 77 1015.3
20260506231628 16 46 14.5 14.5 0.00 0.08 0.08 77 1015.5
20260506231127 16 49 6.4 12.9 0.00 0.08 0.08 77 1015.4
20260506230624 16 15 6.4 14.5 0.00 0.08 0.08 77 1015.4
20260506230120 17 43 9.7 16.1 0.00 0.08 0.08 77 1015.2
20260506225617 17 34 8.0 11.3 0.00 0.08 0.08 78 1015.3
20260506225113 17 22 4.8 14.5 0.00 0.08 0.08 78 1015.2
20260506224610 16 35 4.8 9.7 0.00 0.08 0.08 79 1015.3
20260506224107 16 32 11.3 19.3 0.00 0.08 0.08 78 1015.2
20260506223603 17 28 6.4 17.7 0.00 0.08 0.08 77 1015.2
20260506223059 17 32 6.4 20.9 0.00 0.08 0.08 76 1015.1
20260506222556 17 48 6.4 9.7 0.00 0.08 0.08 75 1015.0
20260506222052 17 11 6.4 8.0 0.00 0.08 0.08 75 1015.2
20260506221550 17 354 1.6 11.3 0.00 0.08 0.08 76 1015.3
20260506221048 17 4 4.8 8.0 0.00 0.08 0.08 75 1015.2
20260506220544 17 20 6.4 9.7 0.00 0.08 0.08 75 1015.4
20260506220039 17 34 6.4 11.3 0.00 0.08 0.08 76 1015.2
20260506215537 17 65 12.9 14.5 0.00 0.08 0.08 75 1015.3
20260506215032 17 54 11.3 11.3 0.00 0.08 0.08 75 1015.2
20260506214529 17 34 11.3 14.5 0.00 0.08 0.08 75 1015.4
20260506214026 17 15 4.8 9.7 0.00 0.08 0.08 75 1015.4
20260506213525 17 27 11.3 11.3 0.00 0.08 0.08 75 1015.4
20260506213021 17 7 6.4 11.3 0.00 0.08 0.08 75 1015.4
20260506212518 17 353 8.0 9.7 0.00 0.08 0.08 75 1015.6
20260506212013 17 341 3.2 11.3 0.00 0.08 0.08 75 1015.3
20260506211509 17 32 6.4 14.5 0.00 0.08 0.08 74 1015.3
20260506211007 17 351 8.0 11.3 0.00 0.08 0.08 74 1015.4
20260506210503 17 302 6.4 6.4 0.00 0.08 0.08 74 1015.5
20260506210000 17 49 4.8 9.7 0.00 0.08 0.08 74 1015.3
20260506205456 17 17 1.6 8.0 0.00 0.08 0.08 76 1015.3
20260506204952 16 30 9.7 12.9 0.00 0.08 0.08 76 1015.3
20260506204450 16 7 6.4 11.3 0.00 0.08 0.08 76 1015.7
20260506203947 16 55 16.1 19.3 0.00 0.08 0.08 75 1015.3
20260506203444 16 40 9.7 19.3 0.00 0.08 0.08 76 1015.3
20260506202941 16 34 12.9 20.9 0.00 0.08 0.08 76 1015.7